Dewpoint
56 57 57 58 58 58 58 59 59 59 60 60 60 60 59 59 57 51 28 42 47 60 54 36 33 33 34 34 32 26 16 14 22 16 20 22 22 21 22 23 20 20 34 21 28
56 57 57 57 58 58 59 59 59 60 60 60 60 59 59 58 48 38 49 58 61 60 34 29 30 31 31 33 32 22 12 11 19 30 31 24 26 23 24 22 31 20 24 26 26
57 57 57 57 58 58 59 59 60 60 61 59 58 59 59 57 32 26 57 58 62 55 35 34 33 30 27 36 36 30 14 20 24 25 26 25 24 25 32 20 21 23 24 26 31
58 58 58 58 58 58 58 60 60 61 60 57 58 58 58 47 28 37 57 59 61 42 35 33 30 30 26 31 30 31 28 26 29 28 27 25 25 24 24 23 26 27 29 30 30
58 58 58 58 58 58 59 60 61 61 60 58 58 58 48 29 30 51 58 56 43 37 33 31 29 28 22 27 25 31 27 27 28 28 27 26 25 23 22 23 28 29 30 30 30
58 58 58 58 58 58 59 59 60 60 60 58 58 57 34 26 45 49 44 39 38 34 32 31 28 29 26 25 23 24 26 25 25 25 24 23 22 23 22 22 27 29 29 30 30
58 58 58 58 58 58 59 60 60 60 59 58 57 52 35 30 50 50 42 38 38 34 31 33 31 28 28 24 27 25 22 21 20 22 21 24 20 21 21 23 27 28 29 29 30
58 58 58 58 58 58 59 60 60 59 57 56 57 46 32 35 47 46 40 38 37 34 34 33 32 30 28 26 22 21 19 19 18 23 23 24 19 21 21 23 27 28 28 28 29
58 58 58 58 57 58 59 60 56 57 57 57 48 38 31 41 39 38 37 36 33 31 32 31 31 28 26 21 19 19 19 17 18 23 22 19 19 21 23 25 27 28 28 28 27
58 57 58 57 57 58 59 59 55 53 53 52 45 37 34 28 33 34 35 34 31 31 29 29 27 25 24 19 19 18 18 17 17 21 22 21 19 22 24 24 27 27 28 27 25
58 58 58 57 58 59 58 51 44 44 46 37 35 35 31 34 35 32 35 33 30 25 23 28 22 21 22 20 19 17 18 18 20 23 22 22 22 23 25 27 27 27 27 26 25
58 58 58 58 58 60 55 49 45 43 41 43 42 34 33 32 29 30 33 27 25 22 26 23 20 22 22 24 20 20 18 18 21 23 23 23 22 24 28 28 28 27 27 25 24
58 57 57 58 59 58 54 49 43 42 40 41 43 42 41 33 32 32 31 29 25 25 24 21 23 24 21 21 20 21 19 20 20 23 26 25 22 24 29 29 29 28 27 25 23
58 57 57 58 57 55 52 51 43 43 37 36 37 37 34 35 35 33 31 29 26 25 26 23 26 26 24 22 22 20 24 23 23 24 23 24 18 20 26 28 28 26 25 25 25
57 57 57 59 53 51 50 44 41 39 28 34 35 35 33 37 32 30 31 30 26 27 26 27 26 25 25 26 25 24 27 25 24 23 21 20 19 20 26 26 27 26 25 25 24
57 57 57 58 57 53 45 44 42 34 29 32 31 28 30 28 28 29 29 29 30 28 29 28 27 26 26 26 27 25 25 25 25 22 19 20 19 20 23 24 27 27 26 25 24
57 57 57 58 54 47 46 45 38 34 35 30 28 27 29 25 27 27 27 26 27 28 27 27 26 25 24 23 22 23 22 21 20 20 21 23 20 20 24 27 27 27 26 26 25
57 56 56 58 55 47 49 45 34 36 35 30 28 27 26 25 25 27 26 26 26 27 27 26 24 26 26 23 23 22 23 23 17 17 18 24 22 24 26 27 28 28 27 27 26
56 56 56 57 53 51 47 39 37 37 37 27 27 24 24 25 24 26 24 25 26 25 24 24 24 26 24 26 24 22 21 25 22 14 19 22 23 25 26 26 27 27 26 26 25
55 54 54 57 53 53 45 40 40 40 38 30 29 27 23 26 24 23 24 24 26 26 29 27 25 27 25 29 28 26 28 23 24 14 16 20 20 21 24 25 26 26 26 26 26
55 50 54 58 54 49 40 40 42 41 38 31 32 30 26 30 26 24 24 27 29 28 28 28 28 27 26 25 25 28 27 26 25 23 17 14 18 22 24 26 26 26 26 26 26
51 45 52 57 46 46 42 43 43 42 40 37 35 34 32 32 29 27 27 28 31 31 27 30 28 25 25 28 29 27 27 26 23 20 21 21 21 26 26 26 27 26 26 26 26
46 44 50 53 42 43 44 44 44 40 39 39 36 36 35 32 32 31 32 34 32 32 32 32 29 19 23 25 27 26 26 27 26 24 19 23 22 27 25 25 26 26 26 26 25
44 39 43 45 44 42 42 42 41 42 40 40 39 38 36 34 37 36 32 35 35 33 38 36 29 25 23 23 27 25 27 28 27 25 25 24 24 24 25 25 25 25 25 25 25
44 40 42 38 40 40 43 41 40 39 41 42 40 38 37 36 36 35 33 34 34 37 34 33 28 28 27 22 24 25 25 26 25 25 24 24 23 24 27 26 26 25 25 25 25
39 38 39 39 40 39 40 39 39 40 39 38 38 39 40 38 37 35 35 33 32 34 32 31 30 28 24 25 26 25 25 25 25 24 23 21 20 20 21 25 22 22 23 20 20
39 39 39 37 38 38 38 37 38 41 39 40 40 39 39 40 38 35 37 37 37 34 32 30 27 24 26 19 20 23 24 26 24 25 24 22 24 21 19 18 18 18 16 16 21
Lifted_Index
9 9 9 8 8 8 8 8 8 7 7 7 7 7 8 8 9 9 9 9 9 9 10 10 10 9 9 8 8 8 6 5 5 5 6 7 7 7 7 7 7 8 8 8 8
9 9 9 8 8 8 8 8 7 7 7 7 7 7 8 8 8 9 9 9 9 9 10 10 9 9 9 8 8 7 6 5 6 6 6 7 7 7 7 7 7 8 8 8 8
9 9 9 8 8 8 8 7 7 7 7 7 8 8 7 7 7 8 9 8 8 9 10 10 9 9 8 8 8 7 6 6 7 7 7 7 7 7 7 7 7 8 8 8 8
9 9 9 9 8 8 8 7 7 7 7 7 8 8 7 7 7 8 9 8 9 9 10 10 9 8 8 7 7 7 7 7 7 7 7 7 7 7 7 7 8 8 8 8 8
8 8 9 9 9 8 8 7 7 7 7 7 7 8 7 7 7 8 8 9 9 10 10 9 9 8 7 7 7 7 7 7 7 7 7 7 7 7 7 7 8 8 8 8 8
8 8 8 8 8 8 7 7 6 6 7 7 7 7 7 7 7 8 8 9 10 10 9 9 9 8 8 7 7 7 6 6 7 7 7 6 6 6 7 7 7 7 7 7 8
8 8 8 8 8 8 7 6 6 6 6 7 7 7 7 7 8 8 8 9 9 9 9 10 9 9 8 7 7 7 6 6 6 6 7 6 6 6 7 7 7 7 7 8 8
7 7 8 8 8 7 6 6 6 6 6 7 7 7 7 7 8 8 8 8 9 9 10 10 9 8 7 7 7 6 5 5 6 6 7 6 6 6 7 7 7 7 7 8 8
7 7 7 7 7 7 6 5 5 6 6 6 7 7 7 7 8 8 8 8 8 9 9 9 9 7 7 6 6 5 5 5 5 6 7 6 6 6 7 7 7 7 7 8 8
6 6 7 7 7 6 5 5 5 6 6 6 6 6 7 7 7 8 8 8 8 8 8 8 7 6 6 5 5 5 5 5 5 6 6 6 6 6 7 7 7 7 7 7 8
6 6 6 6 6 5 4 4 5 5 6 6 6 6 6 7 7 8 8 8 7 7 6 6 6 5 5 5 5 5 5 5 5 6 6 6 6 6 6 6 7 7 7 7 7
6 6 6 6 5 4 4 4 4 5 5 5 5 6 6 6 6 7 7 7 6 5 5 5 5 5 5 5 5 5 4 4 5 6 6 6 6 6 6 6 7 7 7 7 7
5 6 6 5 4 4 3 3 4 4 5 5 5 5 5 5 5 5 6 5 5 5 5 5 5 5 5 5 5 5 4 4 5 5 6 6 5 6 6 6 6 6 6 7 7
5 5 5 5 4 3 3 3 3 4 4 5 5 5 5 5 5 5 5 5 5 5 5 5 5 5 5 5 5 5 5 5 5 5 5 5 5 5 6 5 5 6 6 7 7
5 5 5 4 4 3 3 2 3 3 3 4 6 6 6 5 5 5 6 6 5 5 5 5 5 5 5 5 5 5 5 5 5 5 5 5 5 5 5 5 5 5 6 7 7
4 4 4 4 3 3 2 2 2 3 3 5 5 6 5 5 5 5 5 5 5 5 5 5 5 5 5 5 5 5 5 4 4 4 4 4 5 5 6 5 5 5 6 6 7
4 4 4 4 4 3 2 2 2 3 4 5 5 5 4 4 4 4 4 4 4 4 4 4 4 5 5 5 5 5 4 3 3 2 3 4 5 5 6 6 5 5 5 6 7
4 4 4 4 4 3 3 2 3 4 5 4 4 4 4 3 3 3 3 4 4 4 3 3 3 4 5 4 4 4 4 3 2 2 3 4 5 5 6 6 5 5 5 6 7
3 3 4 4 3 3 2 2 3 4 4 4 4 4 3 3 3 3 3 4 4 4 3 3 3 3 4 4 4 4 4 3 2 2 3 4 5 5 5 5 5 5 5 6 7
2 3 3 3 3 3 2 2 3 4 4 3 3 3 3 3 2 3 3 3 3 3 4 3 2 3 4 4 4 4 4 3 2 2 2 3 3 4 5 5 5 5 5 6 6
2 2 3 3 2 2 2 2 3 4 3 3 3 3 3 2 2 2 2 3 3 3 3 3 3 3 3 3 3 3 3 3 2 2 2 2 3 4 5 5 5 5 5 5 6
3 3 3 2 2 2 2 2 3 3 3 3 3 3 2 2 2 2 2 2 2 2 2 3 3 2 3 4 4 3 3 3 3 3 2 2 3 4 5 5 5 5 5 5 5
3 4 4 3 2 2 2 2 3 3 3 3 3 2 2 2 2 2 2 2 2 2 2 2 3 2 3 4 4 4 4 3 3 3 3 3 3 4 4 5 5 4 4 5 5
3 4 4 3 3 3 2 2 2 3 3 3 3 2 2 2 2 2 2 2 2 2 3 3 3 3 3 3 4 4 4 3 3 3 3 3 3 3 4 4 4 4 4 4 5
3 3 3 3 3 3 3 3 2 3 3 3 3 2 2 2 2 2 2 2 2 2 3 3 2 3 3 3 3 4 4 4 4 3 3 3 3 3 3 3 3 4 4 5 6
3 4 3 3 3 4 4 3 3 3 3 3 3 2 2 2 2 2 2 2 2 2 2 2 2 2 3 3 3 4 4 4 4 4 3 3 3 3 3 3 4 5 5 6 7
4 4 4 4 4 4 4 4 3 3 3 3 3 3 3 3 3 3 3 3 3 2 2 2 2 2 3 3 3 4 4 5 4 4 3 3 3 3 3 4 5 6 7 7 7